Previous Day
Next Day
Current Day
SHEF ID: NRCO2 Canadian River at Norman, OK
STATION TYPE:
STAGE RIV-FLOW BAT-LOAD
ft cfs volt
Ccp-Rev Ccp-Rev Ccp-Rev
(US/Central)
04/16 00:00 87.04 223 12.57
04/16 01:00 87.03 219 12.57
04/16 02:00 87.04 223 12.57
04/16 03:00 87.04 223 12.49
04/16 04:00 87.04 223 12.41
04/16 05:00 87.03 219 12.41
04/16 06:00 87.03 219 12.41
04/16 07:00 87.03 219 12.41
04/16 08:00 87.02 215 12.41
04/16 09:00 87.01 211 12.41
04/16 10:00 87.02 215 12.57
04/16 11:00 87.01 211 12.81
04/16 12:00 87.00 207 13.13
04/16 13:00 87.02 215 13.53
04/16 14:00 87.01 211 13.53
04/16 15:00 87.00 207 13.44
04/16 16:00 87.01 211 13.44
04/16 17:00 87.00 207 13.37
04/16 18:00 87.00 207 13.21
04/16 19:00 87.00 207 12.89
04/16 20:00 87.00 207 12.57
04/16 21:00 87.00 207 12.57
04/16 22:00 87.01 211 12.49
04/16 23:00 86.99 203 12.49